Location: Buch
(50.1863°N, 11.0141°E)
Time: 16:45:46
(UTC+00:00)

CZ-3 R/B - Pass Details

Date: 18 January 2020
Orbit: 346 x 10270 km, 28.4° (Epoch: 19 February)

Event Time Altitude Azimuth Distance (km) Brightness Sun altitude
Exits shadow 04:56:04 10° 244° (WSW) 6,885 5.4 -20.4°
Reaches altitude 10° 04:56:27 10° 243° (WSW) 6,772 5.3 -20.4°
Maximum altitude 05:07:42 20° 206° (SSW) 3,508 4.2 -18.6°
Drops below altitude 10° 05:13:06 10° 161° (SSE) 2,993 4.4 -17.8°
Sets 05:15:39 0° 141° (SE) 3,363 5.1 -17.4°
